SL-14 R/B (11267 NORAD) Tracking and Keplerian Element Data

This shows tracking and keplerian element data for the satellite.

Feedback or suggestion? Click here.




ElementValue
Catalog11267
NameSL-14 R/B
Epoch Orbit51690
Epoch Day354.03223321
Epoch Year2025
RAAN172.1277
Inclination82.5232
Eccentricity0.0015268
Argument of Perigee328.4201
Mean Anonmoly31.6101
Mean Motion14.9177767
Decay Rate4.35E-06
L11 11267U 79011B 25354.03223321 .00000435 00000+0 40582-4 0 9994
L22 11267 82.5232 172.1277 0015268 328.4201 31.6101 14.91777670516902



Live tracking and technical data element details for SL-14 R/B (NORAD 11267). SL-14 R/B can be tracked NOW for your location showing map with azimuth and elevation plus other details from your city location.







IsCatalogInMostPopularTable: catalog: 11267, numindb: 427
Update: records affected: 1



GetName: 11267 SL-14 R/B

Hit Count: updated at: Sat, 14 Mar 2026 03:15:24 GMT